Regional Weather Roundup
Issued by NWS Sioux Falls, SD

Home | Current Version | Previous Version | Text Only | Print | Product List | Glossary On
Versions: 1 2 3 4 5 6 7 8 9 10 11 12 13 14 15 16 17 18 19 20 21 22 23 24 25 26 27 28 29 30 31 32 33 34 35 36 37 38 39 40 41 42 43 44 45 46 47 48 49 50
000
ASUS43 KFSD 070102
RWRFSD

WEATHER ROUNDUP FOR SE SOUTH DAKOTA/SW MINNESOTA/NW IOWA
NATIONAL WEATHER SERVICE SIOUX FALLS SD
800 PM CDT MON JUL 06 2015

NOTE: "FAIR" INDICATES FEW OR NO CLOUDS BELOW 12,000 FEET WITH NO
SIGNIFICANT WEATHER AND OR OBSTRUCTIONS TO VISIBILITY.


SDZ038>040-050-052>070-070200-
SOUTHEAST SOUTH DAKOTA

CITY           SKY/WX    TMP DP  RH WIND       PRES   REMARKS
BROOKINGS      SUNNY     64  52  63 NE7G16    30.10R
CHAMBERLAIN    NOT AVBL
HURON          SUNNY     69  55  60 NE10      30.07R HAZE
MADISON        FAIR      66  54  63 N14       30.09R
MITCHELL       SUNNY     70  56  61 N9        30.08R HAZE
SIOUX FALLS    SUNNY     68  54  60 N15G23    30.07R
WINNER         FAIR      73  54  51 NE12      30.11R
YANKTON        SUNNY     72  55  56 N12G18    30.05R
$$

MNZ071-072-080-081-089-090-097-098-070200-
SOUTHWEST MINNESOTA

CITY           SKY/WX    TMP DP  RH WIND       PRES   REMARKS
FAIRMONT       CLEAR     70  52  52 N17G23    29.99S
JACKSON        CLEAR     68  54  60 N15G28    30.04R
LUVERNE        SUNNY     70  54  56 N12G21    30.07R
MARSHALL       SUNNY     64  48  55 N14       30.06R
PIPESTONE      SUNNY     66  52  59 NE9G18    30.09R
REDWOOD FALLS  CLEAR     67  49  52 NW12G26   30.04R
TRACY          SUNNY     65  52  62 N12       30.08R
WINDOM         CLEAR     64  52  63 N15G26    30.06R
WORTHINGTON    CLEAR     64  50  59 N14G25    30.08R
$$

IAZ001>003-012>014-020>022-031-032-NEZ013-014-SDZ071-070200-
NORTHWEST IOWA

CITY           SKY/WX    TMP DP  RH WIND       PRES   REMARKS
DENISON        CLOUDY    70  63  78 N7        29.96R HAZE
ESTHERVILLE    PTCLDY    68  57  68 N13       30.00R HAZE
LE MARS        PTCLDY    70  57  64 N15G24    30.03R
SIOUX CITY     CLOUDY    73  57  57 N15G23    30.01R HAZE
SPENCER        CLEAR     70  55  59 N17G25    30.01S HAZE
$$

ABBREVIATIONS USED IN REMARKS
   TC - TEMPERATURE IN CELSIUS
  WCI - WIND CHILL INDEX
   HX - HEAT INDEX
  VSB - VISIBILITY




USA.gov is the U.S. government's official web portal to all federal, state and local government web resources and services.